Regional Weather Roundup
Issued by NWS

Home | Current Version | Previous Version | Text Only | Print | Product List | Glossary Off
Versions: 1 2 3 4 5 6 7 8 9 10 11 12 13 14 15 16 17 18 19 20 21 22 23 24 25 26 27 28 29 30 31 32 33 34 35 36 37 38 39 40 41 42 43 44 45 46 47 48 49 50

000
ASUS45 KBOI 250410
RWRID

IDAHO REGIONAL WEATHER ROUNDUP
NATIONAL WEATHER SERVICE BOISE ID
1000 PM MDT SUN MAY 24 2015

NOTE: "FAIR" INDICATES FEW OR NO CLOUDS BELOW 12000 FEET
WITH NO SIGNIFICANT WEATHER AND/OR OBSTRUCTIONS TO VISIBILITY

IDZ012-014-250500-
SOUTHWEST IDAHO


CITY           SKY/WX    TMP DP  RH WIND       PRES   REMARKS
BOISE          CLEAR     70  44  39 CALM      29.82R
CALDWELL       CLEAR     70  41  35 W6        29.82S
MOUNTAIN HOME  CLEAR     58  49  72 E14       29.87R
$$

IDZ016-017-250500-
SOUTHCENTRAL IDAHO


CITY           SKY/WX    TMP DP  RH WIND       PRES   REMARKS
BURLEY         CLOUDY    51  48  89 SW6       29.91R
JEROME         CLOUDY    52  46  80 N3        29.93R
TWIN FALLS     CLOUDY    54  47  77 SW7       29.90S
$$

IDZ019>023-250500-
SOUTHEAST IDAHO


CITY           SKY/WX    TMP DP  RH WIND       PRES   REMARKS
IDAHO FALLS    CLOUDY    56  48  74 S8        29.90R
POCATELLO      PTCLDY    53  47  79 S9        29.92R
REXBURG        CLOUDY    57  44  62 NE3       29.91R
$$

IDZ006-010-011-018-031-032-250500-
CENTRAL IDAHO MOUNTAINS


CITY           SKY/WX    TMP DP  RH WIND       PRES   REMARKS
MCCALL         PTCLDY    55  40  56 NW5       29.91R
HAILEY         MOCLDY    52  48  87 NW8       29.99S
STANLEY          N/A     49  38  65 N3        30.01R
SALMON         PTCLDY    57  43  58 SE3       29.91R
CHALLIS        MOCLDY    55  38  52 NW9       29.93R
$$

IDZ002-004-006-007-026-250500-
NORTHERN IDAHO


CITY           SKY/WX    TMP DP  RH WIND       PRES   REMARKS
LEWISTON       MOCLDY    71  54  54 CALM      29.81S
LOWELL           N/A     58  55  90 N3        29.84R
COEUR D`ALENE  CLOUDY    66  43  42 S6        29.83R
MULLAN PASS    CLOUDY    47  38  71 W3        29.99S
$$



USA.gov is the U.S. government's official web portal to all federal, state and local government web resources and services.